BEIDOU 7

Last updated on Aug. 15, 2020, 5:34 a.m. UTC

1 37256U 10068A   20227.80306015 -.00000192  00000-0  00000+0 0  9996
2 37256  51.3829 297.6468 0082290 213.0535 219.5865  1.00295230 35416
UTC
Height (km)
Latitude
Longitude
Inclination
Orbital Period
UTC large
Height (km)
Speed (km/s)
/
Latitude / Longitude
Inclination (degrees)
Orbital Period (minutes)
Azimuth
Elevation
Range (km)
Doppler Factor
iOS Compass Heading
iOS Angle

Next 30 passes for location: Hong Kong

Rise time Rise Azimuth (degrees) Set time Set Azimuth (degrees) Duration Max altitude (degrees)

No matching passes for this satellites